RH
78 76 74 74 82 85 89 91 86 86 86 86 87 87 93 91 90 93 94 91 89 90
84 84 85 77 83 83 91 89 89 87 88 86 88 90 94 96 92 96 96 97 97 95
88 84 80 82 85 82 93 95 93 88 88 88 86 89 93 98 97 96 98 98 98 96
87 79 82 86 84 82 95 95 95 90 89 85 85 86 91 95 98 98 99 98 96 96
88 83 83 85 87 91 96 95 96 93 88 86 87 87 88 90 91 98 98 99 98 97
83 89 88 90 93 96 96 96 95 95 94 89 93 93 88 89 90 92 92 93 95 97
78 78 84 92 96 96 96 96 96 95 95 96 95 95 90 90 92 92 91 92 93 94
73 72 73 80 93 98 96 96 96 96 96 96 96 96 100 98 97 92 91 89 86 93
71 71 73 72 74 75 97 98 97 96 97 97 94 99 97 99 99 97 98 94 90 84
70 74 74 68 72 76 77 76 92 96 97 96 97 92 88 88 97 95 90 94 88 84
73 75 71 72 75 80 76 71 72 77 78 86 84 88 79 83 82 88 91 92 91 92
76 77 76 80 82 78 80 72 74 72 75 75 76 76 76 82 81 84 90 85 89 89
80 78 80 81 83 80 82 71 72 75 76 74 76 74 75 74 86 87 87 85 85 82
78 77 75 83 81 82 82 82 84 83 77 77 74 76 77 79 85 91 88 87 88 89
Wind_Speed
13 9 11 14 12 11 13 13 18 18 20 21 21 20 18 13 12 9 9 11 11 8
13 14 12 17 13 12 14 12 17 18 20 21 21 20 18 13 10 8 9 10 10 10
12 12 14 13 15 18 15 15 17 17 18 18 19 20 16 10 7 8 6 7 10 9
10 14 13 11 14 16 17 17 17 17 16 13 16 20 20 9 8 11 8 6 8 8
9 11 14 14 14 16 16 16 15 16 14 12 15 18 17 18 19 2 8 5 5 5
11 10 11 14 15 16 16 16 15 15 15 14 15 15 17 15 16 13 7 7 8 5
13 13 10 13 13 16 15 16 14 15 13 11 13 16 14 16 17 15 9 10 12 14
13 13 13 11 11 10 13 14 14 14 12 12 11 12 16 13 12 13 14 13 12 13
13 14 14 14 13 13 10 11 12 14 13 10 10 21 24 17 9 12 14 12 10 9
13 13 13 14 14 14 14 13 12 12 13 13 11 24 26 24 14 12 12 7 8 11
13 13 13 13 14 13 12 13 12 12 13 12 12 25 28 27 12 11 12 16 16 11
14 13 13 13 14 12 10 11 11 11 13 13 13 25 26 20 11 10 12 9 8 9
13 12 12 13 13 12 9 11 9 10 10 15 14 24 25 20 8 11 9 7 8 13
12 12 11 11 10 11 10 9 9 9 9 10 13 14 22 22 10 9 9 8 7 7
Wind_Direction
320 321 322 324 316 313 311 308 311 310 309 307 301 298 272 265 243 214 224 215 213 208
327 321 324 326 316 318 312 306 309 309 307 308 301 298 275 254 229 199 194 206 191 180
320 322 316 320 318 321 317 312 312 312 308 317 342 331 285 249 218 197 192 181 170 176
326 329 320 315 326 323 316 318 316 318 314 337 353 350 350 307 221 187 167 149 166 170
309 329 330 325 323 325 321 318 318 323 325 352 8 1 342 3 343 184 149 140 143 178
314 310 329 334 335 327 323 326 326 332 339 5 13 10 345 8 344 345 39 68 68 70
332 331 321 329 330 334 330 335 338 343 338 6 9 13 351 10 347 334 0 52 61 61
335 335 338 344 334 328 340 343 345 344 348 7 17 5 7 357 358 350 23 28 41 67
341 339 342 346 344 348 344 337 341 351 360 11 19 16 16 10 2 5 13 10 29 30
342 342 342 344 345 349 353 353 355 356 2 358 6 16 13 18 29 356 5 2 30 22
340 342 342 345 344 343 348 355 355 360 2 3 354 9 13 9 15 9 336 18 14 359
339 342 344 345 342 343 348 352 353 355 356 1 359 3 5 9 6 346 5 10 346 351
338 344 342 344 339 339 345 349 347 347 358 359 355 358 1 7 351 352 350 349 354 341
338 340 347 339 338 340 340 340 337 343 352 358 357 353 358 0 3 349 336 347 338 322